Location: Poinsettia Observatory
(32.9673°N, 117.0346°W)
Time: 22:28:08
(UTC-07:00)

Daily predictions for brighter satellites

Satellite Brightness Start Highest point End
(mag) Time Altitude Azimuth Time Altitude Azimuth Time Altitude Azimuth
FENGYUN 3A 4.0 20:07:54 10° SE 20:13:00 47° ENE 20:18:10 10° N
Cosmos 1603 3.7 20:11:43 10° SSW 20:17:19 85° ESE 20:22:57 10° NNE
Cosmos 2058 Rocket 3.0 20:14:35 10° N 20:18:57 76° E 20:23:17 10° S
APEX 4.0 20:15:43 10° NNW 20:20:21 81° ENE 20:26:24 10° SSE
Lacrosse 4 Rocket 2.5 20:17:53 10° SSE 20:21:02 22° ESE 20:24:14 10° NE
ALOS 2.4 20:18:22 10° SSE 20:22:58 60° ENE 20:27:33 10° N
Meteor 2-9 Rocket 4.3 20:19:44 10° N 20:25:29 67° E 20:31:18 10° SSE
ISS -0.3 20:24:34 10° W 20:27:00 19° NW 20:29:26 10° NNE
Timation 1 Rocket 4.4 20:21:34 10° NNW 20:27:34 68° ENE 20:33:30 10° SSE
deb Centaur AC-2 4.4 20:24:05 10° W 20:28:33 62° S 20:33:49 10° E
Meteor 1-15 Rocket 4.3 20:24:46 10° N 20:30:23 70° E 20:36:04 10° SSE
Atlas Centaur 2 2.8 20:27:19 10° W 20:33:46 73° S 20:41:44 10° E
H-2A R/B 3.1 20:30:38 10° SE 20:34:21 30° ENE 20:38:10 10° N
Cosmos 1943 3.5 20:31:11 10° S 20:36:34 47° ESE 20:41:59 10° NNE
Cosmos 2228 3.0 20:33:19 10° N 20:37:45 81° E 20:42:08 10° S
Tsikada Rocket 4.1 20:34:13 10° S 20:40:31 63° E 20:46:47 10° NNE
Cosmos 1626 Rocket 3.5 20:36:28 10° S 20:40:53 81° E 20:45:18 10° N
YAOGAN 11 4.1 20:37:27 10° SSE 20:41:46 71° ENE 20:46:04 10° N
Abrixas rocket 4.1 20:39:07 10° WNW 20:41:55 24° SW 20:44:43 10° S
H-2A R/B 2.9 20:39:47 10° S 20:43:44 81° WSW 20:47:43 10° NNW
deb Chang Zheng 4 3.6 20:41:34 10° NNE 20:45:54 61° ESE 20:50:10 10° S
Cosmos 1939 Rocket 3.7 20:48:43 16° SE 20:51:33 34° ENE 20:55:19 10° N
Cosmos 1461 3.7 20:49:15 10° NW 20:53:16 46° WSW 20:57:06 10° S
ATLAS 5 CENTAUR R/B 2.9 20:53:41 10° SSW 20:55:30 14° SSE 20:56:01 14° SSE
Cosmos 1464 Rocket 4.4 20:49:49 10° NNW 20:55:54 66° W 21:02:02 10° S
Cosmos 1346 Rocket 3.9 20:55:11 19° SE 20:56:43 24° E 20:59:53 10° NE
Milstar 3 Cent rocket 3.9 20:49:15 10° W 20:57:14 30° SSW 21:01:24 14° SSE
Cosmos 1190 Rocket 4.1 20:54:57 10° S 21:00:07 57° ESE 21:05:20 10° NNE
SPOT 5 3.6 21:00:16 19° ESE 21:02:30 30° ENE 21:06:16 10° N
CZ-3C R/B 3.4 20:55:37 10° WSW 21:02:46 19° SSW 21:04:49 15° SSE
Cosmos 1816 Rocket 4.5 20:58:39 10° S 21:04:59 76° E 21:11:19 10° N
ATLAS 3B R/B 2.9 20:58:32 10° SSW 21:06:15 85° ESE 21:13:53 10° NNE
Delta 168 4.0 21:04:20 10° SW 21:06:46 20° S 21:07:20 19° S
Nimbus 7 Rocket 4.3 21:02:28 10° NNE 21:08:23 73° ESE 21:14:14 10° S
Cosmos 1634 Rocket 4.4 21:08:31 10° N 21:14:23 43° E 21:17:50 23° SE
Cosmos 676 Rocket 4.3 21:13:07 13° S 21:17:41 48° ESE 21:22:47 10° NNE
YAOGAN 6 4.1 21:18:24 21° E 21:18:50 21° ENE 21:21:44 10° NNE
Cosmos 2346 Rocket 4.5 21:13:44 12° S 21:19:28 62° E 21:25:30 10° NNE
ERS-1 Rocket 3.4 21:17:17 12° S 21:21:50 61° WSW 21:26:48 10° NNW
Cosmos 2369 Rocket 2.4 21:18:03 10° NNW 21:23:37 56° ENE 21:26:22 29° SE
Cosmos 1932 4.4 21:22:13 10° SSW 21:28:15 61° ESE 21:34:22 10° NE
DEBRIS 1.7 21:24:47 10° NW 21:28:30 84° NE 21:28:40 75° ESE
CZ-2C R/B 3.2 21:31:00 12° SW 21:31:58 15° W 21:33:24 10° WNW
Cosmos 1758 Rocket 3.6 21:34:20 38° SSE 21:35:43 58° E 21:40:01 10° NNE
Envisat 3.0 21:37:31 27° S 21:40:18 80° WSW 21:45:24 10° NNW
GEOS 3 Rocket 3.8 21:40:33 32° SSE 21:43:03 69° WSW 21:48:16 10° NW
SL-27 R/B 3.5 21:44:18 31° NE 21:44:18 31° NE 21:46:21 10° NNE
Cosmos 407 Rocket 3.8 21:38:36 10° SSW 21:43:50 67° WNW 21:49:02 10° N
CZ-4C R/B 4.3 21:48:42 11° ENE 21:48:42 11° ENE 21:49:02 10° ENE
Cosmos 1825 Rocket 4.4 21:47:38 14° SSW 21:51:12 48° W 21:55:30 10° N
USA 238 DEB 3.6 21:47:03 10° SSW 21:54:08 77° ESE 22:01:12 10° NNE
USA 238 3.6 21:47:09 10° SSW 21:54:13 76° ESE 22:01:18 10° NNE
MetOp-A 4.1 21:54:19 40° S 21:56:20 87° WSW 22:01:43 10° NNW
Cosmos 2263 4.1 21:53:47 10° NNW 21:59:26 83° ENE 22:01:02 49° SSE
Lacrosse 4 Rocket 3.8 21:56:27 10° WSW 21:59:38 22° WNW 22:02:52 10° N
COSMOS 2406 3.1 22:03:21 45° S 22:05:01 67° ESE 22:10:42 10° NNE
Cosmos 1954 Rocket 4.1 22:02:05 24° SSW 22:05:20 76° WNW 22:10:39 10° NNE
Cosmos 2084 4.4 22:06:25 10° NNW 22:10:11 35° NE 22:10:11 35° NE
H-2A R/B 4.4 22:07:40 11° SW 22:10:22 18° W 22:13:21 10° NW
CZ-4C R/B 4.1 22:11:59 42° NE 22:11:59 42° NE 22:15:14 10° N
Cosmos 1943 Rocket 2.3 22:07:12 10° N 22:12:40 55° ENE 22:13:25 51° E
SeaSat 1 2.3 22:12:25 67° SSE 22:13:06 90° ENE 22:18:04 10° NNW
Landsat 7 4.2 22:20:31 51° ENE 22:20:31 51° ENE 22:24:53 10° N
Atlas Centaur 2 2.9 22:16:11 10° W 22:23:27 63° SSW 22:25:27 50° SE
SL-24 R/B 4.5 22:18:27 10° N 22:23:37 76° E 22:24:04 71° SE
NOSS 3-2 (C) 4.4 22:30:30 32° ENE 22:30:30 32° ENE 22:34:30 10° NE
Cosmos 1953 3.3 22:25:55 10° N 22:28:40 41° NNE 22:28:40 41° NNE
Cosmos 1741 Rocket 3.8 22:30:05 83° SE 22:30:12 85° ESE 22:35:33 10° NNE
Cosmos 1842 4.5 22:36:20 38° WNW 22:36:20 38° WNW 22:39:45 10° N
Terra 2.4 22:36:48 47° NE 22:36:48 47° NE 22:40:42 10° N
Geosat 3.9 22:31:16 10° NNE 22:36:05 82° NE 22:36:05 82° NE
Cosmos 1092 Rocket 4.1 22:36:22 56° E 22:36:26 56° E 22:42:33 10° NNE
OAO 1 Rocket 4.5 22:32:16 10° WSW 22:37:00 71° WSW 22:37:00 71° WSW
ARGOS 3.4 22:41:02 54° SW 22:41:37 58° W 22:46:58 10° NNW
Cosmos-2242 3.6 22:38:08 10° NNW 22:41:48 55° NW 22:41:48 55° NW
Nadezhda 4 Rocket 3.9 22:42:56 69° S 22:43:48 90° E 22:50:10 10° N
Cosmos 1850 Rocket 4.2 22:45:13 62° WSW 22:45:40 65° WNW 22:50:52 10° N
Cosmos 1140 Rocket 4.4 22:46:24 35° WSW 22:47:58 46° WNW 22:53:01 10° N
H-2A R/B 2.2 22:54:58 67° NNW 22:54:58 67° NNW 22:59:21 10° NNW
Cosmos 1570 Rocket 4.2 22:50:22 10° NNW 22:55:11 73° NNW 22:55:11 73° NNW
Cosmos 2369 Rocket 4.3 23:03:56 10° WNW 23:07:02 15° W 23:08:12 14° WSW
NOSS 3-2 (A) 3.4 23:10:04 77° W 23:10:15 78° WNW 23:16:45 10° NNE
USA 234 3.1 23:11:49 77° E 23:12:13 81° NE 23:18:48 10° NW
Cosmos 1655 Rocket 4.3 23:18:06 56° NE 23:18:06 56° NE 23:23:19 10° NNE
Cosmos 2026 Rocket 4.2 23:24:08 59° NE 23:24:08 59° NE 23:29:07 10° N
Meteor 2-5 Rocket 4.1 23:25:22 65° NW 23:25:22 65° NW 23:30:30 10° N
CZ-4C R/B 2.8 23:33:48 49° NW 23:33:48 49° NW 23:39:05 10° NNE
Cosmos 2344 3.7 23:45:49 59° E 23:45:49 59° E 23:52:59 10° NE
Cosmos 1943 Rocket 4.4 23:52:45 10° WNW 23:54:56 15° W 23:54:56 15° W
